CZ-6A DEB

Satellite information

Favourite Embed

Satellite Type and Status

DEBRISIN ORBIT

Key statistics

Satellite CZ-6A DEB at a glance.

Uptime

275

Days in orbit

Revolutions

≈ 14.2

Per day

Orbit

LEO

Low Earth Orbit

Inclination

89.0

Latest

Satellite identification and parameters

Extended collection of information and parameters for CZ-6A DEB.

Object identification

Identified? True

Debris? True

Object name: CZ-6A DEB

International designator: 2024-140WR

Object number (NORAD): 61376

Object ID (CCSDS): 61376

Country: PEOPLES REPUBLIC OF CHINA (PRC)

Current information (Y/N): Y

RCS size: SMALL

Orbital parameters

Period: 101.578 minutes

Inclination: 89.009 deg

SMA: 7211.516 km

Apoapsis: 877.55 km

Periapsis: 789.212 km

RAAN: 320.9173 deg

Eccentricy: 0.0061248

Argument of periapsis: 84.5208 deg

Mean anomaly: 276.2963 deg

Mean motion: 14.1763009 rev/day

Mean motion (dot): 0.0000186 rev/day2

B* drag term: 0.0008917 1/REarth

Two-line elements (TLE)

Creation date: May 7, 2025, 3:14 a.m.

Reference frame: TEME

Reference center: EARTH

Epoch: May 6, 2025, 11:57 a.m. UTC

TLE line 0: 0 CZ-6A DEB

TLE line 1: 1 61376U 24140WR 25126.49808012 .00001860 00000-0 89170-3 0 9995

TLE line 2: 2 61376 89.0090 320.9173 0061248 84.5208 276.2963 14.17630090 34636

Live tracking on map

Real-time ground track for satellite CZ-6A DEB.

In-orbit conjunctions

A list of the most updated potential collisions computed for object CZ-6A DEB.

Target Orbit TCA Probability of collision Miss distance Type
FENGYUN 1C DEB SSO 2025-03-09 04:54:21 0.000105731 107.0 (m) DEBRIS
FENGYUN 1C DEB SSO 2025-01-21 22:58:36 0.0001028592 77.0 (m) DEBRIS
FENGYUN 1C DEB SSO 2024-12-11 03:37:58 0.0001767501 957.0 (m) DEBRIS
CZ-6A DEB SSO 2024-11-26 23:00:35 0.0002151195 136.0 (m) DEBRIS
DELTA 2 R/B LEO 2024-10-19 05:33:28 0.0005298297 178.0 (m) ROCKET BODY

Associated space launch

18 Low Earth Orbit communication satellites with Ku, Q and V band payloads for the G60 constellation operated by Shanghai Spacecom Satellite Technology (SSST) with funding backed by the Shanghai local government. Initial constellation will consist of 1296 satellites by 2027 with long term plans to expand it to 12000 satellites.

CZ-6A DEB was lifted into orbit during the mission ‘Long March 6A | G60 Polar Group 01’, on board a Long March 6A space rocket.

The launch took place on Aug. 6, 2024, 6:42 a.m. from Launch Complex 9A.

For more information about the launch, click the button.

Launch to space Long March 6A | G60 Polar Group 01
Long March 6A | G60 Polar Group 01

Agency: N/A

Status: Launch Successful

Launch date: Aug. 6, 2024, 6:42 a.m. UTC

Rocket: Long March 6A

Launch pad: Launch Complex 9A

Location: Taiyuan Satellite Launch Center, People's Republic of China

...

Latest news about this satellite

News about space launch
Brightness of first Chinese broadband constellation satellites alarms astronomers

The first satellites of a Chinese broadband constellation are significantly brighter than those of Western systems, posing a new challenge for astronomers.

News about space launch
Chinese rocket stage breaks up into cloud of more than 700 pieces of space debris

HELSINKI — A Chinese Long March 6A rocket’s upper stage has fragmented into a cloud of over 700 pieces of space debris, adding to concerns about long-term orbital safety. China […]

News about space launch
China's Thousand Sails Megaconstellation Kicks Off with Dangerous Debris Field

China's Thousand Sails Megaconstellation Kicks Off with Dangerous Debris Field


Newsletter sign-up

Weekly statistics, charts and insights to help you stay on top of the space industry.